sat.trackr.live / text

‹ back to catalog

ONEWEB-0545

NORAD 54647 · 2022-166F

PAYLOAD ACTIVE UNKNOWN

§ Identity

Operator
Country
UK
Launch date
2022-12-08
Launch site
AFETR
Launch vehicle
Mass (kg)
RCS (m²)

Purposes: comms

External: N2YO · Heavens-Above · Gunter

§ Orbital elements

Epoch: 2026-05-25T00:38:53.409984Z

Period
108.94 min
Inclination
87.9253°
Eccentricity
0.0002469
Mean motion
13.21826285 rev/d
Perigee alt
1,175.9 km
Apogee alt
1,179.6 km
Semi-major
7,555.9 km
B*
5.5975e-5
RAAN
248.5899°
Arg perigee
94.9256°
Mean anomaly
265.2160°
Rev number
16,844

§ Raw data

ONEWEB-05451 54647U 22166F   26145.02700706  .00000036  00000+0  55975-4 0  99962 54647  87.9253 248.5899 0002469  94.9256 265.2160 13.21826285168446

JSON: /api/v1/satellites/54647 · /tle

For live sub-satellite position, see the globe view (requires WebGL).

§ Visibility from observer

Set your observer location to see the next 7 days of passes ≥ 10°. The values pass through the URL so the page stays shareable.

No JS? Fill the form by hand. The geolocation button needs JavaScript.